Anderson, SC

4:03 AM EDT on October 17, 2017 (GMT -0400)
Anderson Regional

Weather History for KAND - June, 2014

Change the Weather History Date:

Friday, June 6, 2014

  Actual Average Record
Temperature  
Mean Temperature 78 °F -  
Max Temperature 88 °F 85 °F 99 °F (1985)
Min Temperature 68 °F 63 °F 51 °F (1988)
Cooling Degree Days 12    
Growing Degree Days 28 (Base 50)    
Moisture  
Dew Point 67 °F    
Average Humidity 71    
Maximum Humidity 96    
Minimum Humidity 46    
Precipitation  
Precipitation 0.00 in - - ()
Sea Level Pressure  
Sea Level Pressure 29.89 in    
Wind  
Wind Speed 5 mph (WSW)    
Max Wind Speed 12 mph    
Max Gust Speed -    
Visibility 10 miles    
Events Rain , Thunderstorm    
Averages and records for this station are not official NWS values.
T = Trace of Precipitation, MM = Missing Value Source: NWS Daily Summary

Daily Weather History Graph

Daily Weather History Graph

Search for Another Location

Airport or City:

Trip Planner

Search our weather history database for the weather conditions in past years. The results will help you decide how hot, cold, wet, or windy it might be!

Date:

Astronomy

Jun. 06, 2014 Rise Set
Actual Time 6:18 AM EDT 8:41 PM EDT
Civil Twilight 5:49 AM EDT 9:10 PM EDT
Nautical Twilight 5:13 AM EDT 9:46 PM EDT
Astronomical Twilight 4:34 AM EDT 10:25 PM EDT
Moon 2:14 PM EDT (6/6) 1:52 AM EDT (6/6)
Length of Visible Light 15h 21m
Length of Day
14h 22m
First Quarter, 58% of the Moon is Illuminated
Jun 6
First Quarter
Jun 13
Full
Jun 19
Last Quarter
Jun 27
New
Jul 5
First Quarter

Hourly Weather History & Observations

Time (EDT) Temp. Heat Index Dew Point Humidity Pressure Visibility Wind Dir Wind Speed Gust Speed Precip Events Conditions
12:56 AM 73.0 °F - 68.0 °F 84% 29.86 in 10.0 mi WSW 11.5 mph - N/A   Mostly Cloudy
1:56 AM 72.0 °F - 66.9 °F 84% 29.86 in 10.0 mi West 6.9 mph - N/A   Mostly Cloudy
2:56 AM 72.0 °F - 68.0 °F 87% 29.86 in 10.0 mi WNW 4.6 mph - N/A   Clear
3:56 AM 71.1 °F - 68.0 °F 90% 29.83 in 10.0 mi Calm Calm - N/A   Clear
4:56 AM 69.1 °F - 68.0 °F 96% 29.85 in 10.0 mi Calm Calm - N/A   Clear
5:56 AM 69.1 °F - 66.9 °F 93% 29.87 in 10.0 mi Calm Calm - N/A   Clear
6:56 AM 68.0 °F - 66.9 °F 96% 29.91 in 10.0 mi Calm Calm - N/A   Partly Cloudy
7:56 AM 72.0 °F - 69.1 °F 91% 29.92 in 10.0 mi NW 4.6 mph - N/A   Clear
8:56 AM 75.9 °F - 66.0 °F 71% 29.92 in 10.0 mi ENE 9.2 mph - N/A   Clear
9:56 AM 79.0 °F - 64.0 °F 60% 29.92 in 10.0 mi East 5.8 mph - N/A   Clear
10:56 AM 80.1 °F 81.5 °F 63.0 °F 56% 29.91 in 10.0 mi ENE 8.1 mph - N/A   Clear
11:56 AM 82.0 °F 83.8 °F 64.9 °F 56% 29.91 in 10.0 mi Variable 5.8 mph - N/A   Clear
12:56 PM 84.0 °F 85.8 °F 64.9 °F 53% 29.90 in 10.0 mi Calm Calm - N/A   Partly Cloudy
1:56 PM 84.9 °F 86.1 °F 64.0 °F 49% 29.90 in 10.0 mi North 3.5 mph - N/A   Mostly Cloudy
2:56 PM 87.1 °F 88.3 °F 64.0 °F 46% 29.88 in 10.0 mi SW 6.9 mph - N/A   Mostly Cloudy
3:56 PM 84.0 °F 85.4 °F 64.0 °F 51% 29.87 in 10.0 mi West 4.6 mph - N/A   Clear
4:56 PM 86.0 °F 87.3 °F 64.0 °F 48% 29.86 in 10.0 mi North - - N/A   Clear
5:56 PM 86.0 °F 88.8 °F 66.9 °F 53% 29.86 in 10.0 mi West 6.9 mph - 0.00 in Rain Light Rain
6:56 PM 84.9 °F 87.1 °F 66.0 °F 53% 29.87 in 10.0 mi SSW 9.2 mph - 0.00 in   Clear
7:56 PM 81.0 °F 83.3 °F 66.9 °F 62% 29.88 in 10.0 mi SW 5.8 mph - N/A   Clear
8:56 PM 78.1 °F - 69.1 °F 74% 29.90 in 10.0 mi SSW 4.6 mph - N/A   Mostly Cloudy
9:36 PM 77.0 °F - 69.1 °F 76% 29.92 in 10.0 mi SW 4.6 mph - N/A Thunderstorm Mostly Cloudy
9:51 PM 75.2 °F - 69.8 °F 83% 29.92 in 10.0 mi Calm Calm - N/A   Partly Cloudy
9:56 PM 75.0 °F - 69.1 °F 82% 29.89 in 10.0 mi Calm Calm - N/A   Clear
10:56 PM 75.0 °F - 68.0 °F 79% 29.91 in 10.0 mi Calm Calm - N/A   Partly Cloudy
11:56 PM 73.0 °F - 68.0 °F 84% 29.89 in 10.0 mi Calm Calm - N/A   Clear